Location: Killam
(52.7910°N, 111.8608°W)
Time: 10:20:53
(UTC+00:00)

SR - Pass Details

Date: 19 February 2026
Orbit: 573 x 848 km, 66.7° (Epoch: 7 March)

Event Time Altitude Azimuth Distance (km) Brightness Sun altitude
Exits shadow 11:59:25 55° 160° (SSE) 724 ? -24.2°
Maximum altitude 11:59:58 61° 124° (SE) 688 ? -24.1°
Drops below altitude 10° 12:04:25 10° 45° (NE) 2,019 ? -23.4°
Sets 12:06:48 0° 42° (NE) 2,973 ? -23.1°
